STARLINK-1153, 45080

Orbit data source: Space-Track

STARLINK-1153, 45080 is a payload satellite owned by SpaceX/Seattle (US) in LEO that was launched on Wed, 29 Jan 2020 UTC via an FALCON 9 launch vehicle from the Air Force Eastern Test Range (AFETR). Payload-class satellites include a variety of spacecraft equipped with specific instruments for various scientific and technological missions. These include communications satellites like Starlink; space stations such as the ISS; scientific satellites like the Hubble; Earth observation satellites from companies like Planet Labs, Umbra, and HawkEye 360; GPS; miniature CubeSats for education and research; and military/defense satellites.

Loading next visibility...
Identifier
45080, 2020-006AN
Orbit
LEO
Last TLE update
9 hours ago
Origin
Manufacturer
SpaceX/Seattle
Mission
Operational Commercial Communications
Bus & Motor
STARLINK, Unknown motor
Mass
260 kg wet, ~248 kg dry
Launch date (UTC)
2020-01-29 (5 years ago)
Launch vehicle
FALCON 9
Launch site
Air Force Eastern Test Range (AFETR)
Object type
Payload
Rocket body
Debris
Shape & HBR
Box + 1 Pan, 8.86 m
Radar Cross Section
13.562 m², Large (>1 m²)

Expand to show TLE details & history

TLE from 9 hours ago
0 STARLINK-1153
1 45080U 20006AN  25181.86314705  .00000954  00000-0  82941-4 0  9992
2 45080  53.0562 317.1141 0001279  90.7934 269.3202 15.06395448298782
Epoch: 2025-06-30T20:42Z
TLE epoch observation values (Epoch: 2025-06-30T20:42:55.905Z)
Latitude
0.00003°
Longitude
87.21433°
Altitude
548.115 km
Speed
7.589 km/s
True Right ascension
21h 08m 27s
True Declination
0° 00' 00"
Sunlit
Object was in full shadow at epoch
Visualization orbit readout
Latitude
-15.47834°
Longitude
73.49007°
Altitude
551.696 km
Speed
7.586 km/s
Apparent Right ascension
23h 20m 20s
Apparent Declination
-56° 04' 08"
Sunlit
Object is in full shadow
Visualization observer readout
Local Sidereal Time
17:48:46
Azimuth
140.864° SSE
Elevation
-28.647°
Doppler factor
1
Orbital elements
Apogee altitude
548.382 km
Perigee altitude
546.61 km
Semi-major axis
6,925.633 km
Eccentricity
0.00013
Inclination
53.0562°
RAAN
317.1141°
Arg. of periapsis
90.7934°
True anomaly
Unknown
Mean anomaly
269.3202°
Eccentric anomaly
Unknown
Mean motion
3.76577 °/min
Orbital period
95.6 mins
BSTAR
0.000082941
Loading maneuver chart data...
Loading SW <> Apogee altitude chart data...

STARLINK-1153 Visibility forecast

Observer location: undefined°, undefined°

Span
Click to sort rows by Start time (UTC) header in descending order
Start Az.
Max El. time (UTC)
Max El. Az.
Max El.
End time (UTC)
End Az.
7 mins2025-07-01 11:12:01.214Z201.649° SSW2025-07-01 11:15:01.214Z151.793° SSE32.351°2025-07-01 11:19:01.214Z64.653° ENE
5 mins2025-07-01 12:53:01.214Z281.802° WNW2025-07-01 12:55:01.214Z329.617° NNW28.22°2025-07-01 12:58:01.214Z30.097° NE
6 mins2025-07-01 17:54:01.214Z326.065° NNW2025-07-01 17:57:01.214Z40.09° NE34.771°2025-07-01 18:00:01.214Z102.653° ESE
5 mins2025-07-01 19:34:01.214Z275.281° WNW2025-07-01 19:36:01.214Z235.332° WSW24.106°2025-07-01 19:39:01.214Z177.77° S
|